Regional Weather Roundup
Issued by NWS

Home | Current Version | Previous Version | Text Only | Print | Product List | Glossary On
Versions: 1 2 3 4 5 6 7 8 9 10 11 12 13 14 15 16 17 18 19 20 21 22 23 24 25 26 27 28 29 30 31 32 33 34 35 36 37 38 39 40 41 42 43 44 45 46 47 48 49 50
000
ASUS43 KLSX 080157
RWRMO

WEATHER SUMMARY FOR MISSOURI
NATIONAL WEATHER SERVICE SPRINGFIELD MO
800 PM CST SUN FEB 07 2016

NOTE: "FAIR" INDICATES FEW OR NO CLOUDS BELOW 12,000 FEET WITH NO
       SIGNIFICANT WEATHER AND/OR OBSTRUCTIONS TO VISIBILITY.
       CURRENT SKY AND/OR WEATHER CONDITIONS ARE NOT AVAILABLE FOR
       CHILLICOTHE AND FARMINGTON.

MOZ001>031-035>038-043-044-053-054-080300-
...NORTHERN AND WESTERN MISSOURI...

CITY           SKY/WX    TMP DP  RH WIND       PRES   REMARKS
KANSAS CTY INT CLOUDY    37  28  70 NW12G24   30.02R WCI  29
LEE`S SUMMIT   CLOUDY    38  28  67 NW17G36   30.03R WCI  28
ST JOSEPH      MIX PCPN  37  29  72 NW23G33   30.02S WCI  26
CHILLICOTHE      N/A     37  30  75 NW16G24   29.96R WCI  28

$$
MOZ066>068-077>081-088>096-101>105-080300-
...SOUTHWEST MISSOURI...

CITY           SKY/WX    TMP DP  RH WIND       PRES   REMARKS
SPRINGFIELD    CLEAR     44  20  38 NW9       30.01S
JOPLIN         CLEAR     43  17  35 W9        30.08S

$$
MOZ032>034-039>042-045>050-055>058-069>072-080300-
...CENTRAL MISSOURI...

CITY           SKY/WX    TMP DP  RH WIND       PRES   REMARKS
COLUMBIA       NOT AVBL
JEFFERSON CITY MOCLDY    45  25  45 W7        29.94F
ROLLA          CLOUDY    45  21  38 W16G33    29.92F
SEDALIA        CLOUDY    45  20  36 NW24G35   29.97F

$$
MOZ051-052-059>065-080300-
...EAST CENTRAL MISSOURI...

CITY           SKY/WX    TMP DP  RH WIND       PRES   REMARKS
ST LOUIS INTL  NOT AVBL
SPIRIT OF STL  MOCLDY    45  28  53 N15G28    29.91R

$$
MOZ072>076-082>087-097>100-106>115-080300-
...SOUTH CENTRAL AND SOUTHEAST MISSOURI...

CITY           SKY/WX    TMP DP  RH WIND       PRES   REMARKS
CAPE GIRARDEAU CLOUDY    44  32  62 W7        29.91S
POPLAR BLUFF   CLOUDY    51  28  41 W7        29.93F
WEST PLAINS    PTCLDY    44  25  47 W7        29.99S

$$



USA.gov is the U.S. government's official web portal to all federal, state and local government web resources and services.